Hourly Data Report for December 13, 2019

All times are specified in Local Standard Time (LST). Add 1 hour to adjust for Daylight Saving Time where and when it is observed.

CORAL HARBOUR A
NUNAVUT
Current Station Operator: NAVCAN

64°11'36.000" N
83°21'34.000" W
62.20 m
2301002
71915
YZS

Download Data

Hourly Data (December 2019)
Hourly Data Report for December 13, 2019
TIME Temp Definition
°C
Dew Point Definition
°C
Rel Hum Definition
%
Wind Dir Definition
10's deg

Wind Spd Definition
km/h
Visibility Definition
km
Stn Press Definition
kPa
Hmdx Definition


Wind Chill Definition


Weather Definition


00:00 -30.0 -33.4 73 34 12 24.1 99.93   -40 Ice Crystals
01:00 -30.3 -33.4 75 32 15 24.1 99.95   -42 Ice Crystals
02:00 -28.8 -31.9 75 34 21 24.1 99.92   -42 Ice Crystals
03:00 -29.1 -32.2 75 32 9 24.1 99.96   -38 Ice Crystals
04:00 -28.4 -31.5 75 34 12 24.1 99.92   -38 Ice Crystals
05:00 -27.6 -30.6 76 31 11 24.1 99.91   -37 Ice Crystals
06:00 -28.0 -31.0 76 29 8 24.1 99.90   -36 Ice Crystals
07:00 -27.2 -30.2 76 32 3 24.1 99.92   -30 Ice Crystals
08:00 -27.3 -30.2 77 25 6 24.1 99.92   -33 Ice Crystals
09:00 -27.8 -30.6 78 29 17 24.1 99.90   -39 Ice Crystals
10:00 -27.0 -30.0 76 30 13 24.1 99.90   -37 Ice Crystals
11:00 -25.9 -29.0 75 29 11 24.1 99.93   -35 Ice Crystals
12:00 -27.6 -30.4 77 25 12 24.1 99.90   -37 Ice Crystals
13:00 -28.2 -31.0 77 29 6 24.1 99.90   -34 Ice Crystals
14:00 -27.5 -30.3 77 31 7 24.1 99.88   -34 Ice Crystals
15:00 -27.6 -30.5 77 25 5 24.1 99.85   -33 Ice Crystals
16:00 -27.1 -30.0 77 23 5 24.1 99.84   -32 Ice Crystals
17:00 -26.1 -28.7 79 26 18 24.1 99.84   -38 Ice Crystals
18:00 -25.7 -28.4 79 24 15 19.3 99.81   -36 Ice Crystals
19:00 -26.3 -29.2 77 25 13 19.3 99.79   -36 Ice Crystals
20:00 -27.7 -30.6 77 24 10 19.3 99.74   -36 Ice Crystals
21:00 -28.3 -31.2 77 26 9 19.3 99.72   -37 Ice Crystals
22:00 -29.0 -32.0 76 25 14 19.3 99.68   -40 Ice Crystals
23:00 -28.9 -31.8 77 26 18 19.3 99.66   -41 Ice Crystals

Notes on Data Quality.

Legend

  • E = Estimated
  • M = Missing
  • NA = Not Available
Date modified: